Theta_e
313 313 313 315 313 313 313 313 312 311 310 308 308 307 306 306 306 304 304 304 303 303 303 304 304 303 302 302 303 302 303 303 303 306 306 303 301 300 300 301 301 300 301 303 305 303 299 300 303 305 307 307 305 302 301 298 299 300 299 299 299 299 299 299 299 298 299 299 299 298 298 298 299 300 300 303 305 304 304 303 304 305 303 304 305 304 304 304 303 303 302 300 301 302 302 302 302
314 314 314 315 314 314 314 314 313 310 310 308 308 307 306 305 305 303 303 303 303 304 304 304 304 304 303 303 303 302 302 302 302 302 302 301 301 301 300 301 301 301 300 302 304 301 299 299 300 303 306 305 302 299 298 298 299 299 299 299 299 299 298 298 298 297 297 296 296 296 296 297 296 298 298 301 304 302 301 302 302 302 301 302 303 303 302 302 302 303 301 299 300 301 301 301 300
315 315 314 315 315 314 314 313 312 310 309 308 308 307 307 306 304 304 304 304 304 304 304 303 304 304 304 303 302 302 302 302 302 302 302 302 301 301 301 301 301 301 300 302 302 300 299 300 300 300 302 302 299 298 298 299 299 299 299 299 299 299 298 298 297 297 296 296 295 295 295 295 295 296 296 299 302 300 298 300 299 299 298 300 301 300 300 300 300 301 300 300 300 299 300 299 299
314 314 314 315 315 314 313 312 311 309 308 308 307 307 307 306 305 305 305 305 305 304 303 303 303 304 304 303 302 302 302 302 302 302 302 301 301 300 301 301 301 301 300 301 300 299 300 300 300 300 300 300 299 299 299 299 299 299 299 299 299 298 298 297 297 296 295 295 295 295 295 295 294 295 296 298 300 298 296 297 296 297 296 297 298 297 298 297 298 299 299 299 298 298 299 298 297
314 314 314 314 314 314 313 311 310 309 308 308 307 307 306 306 306 306 305 305 305 304 304 303 302 303 303 303 303 302 302 302 302 302 301 301 301 300 301 301 301 301 300 300 299 300 300 300 300 300 300 300 299 299 299 299 299 299 299 299 298 298 297 297 296 295 295 295 295 295 295 295 295 294 295 296 297 297 296 296 296 296 296 296 296 295 295 295 297 297 296 296 295 296 297 296 296
313 313 313 313 314 313 312 310 309 309 308 308 307 306 306 305 305 305 304 304 304 304 304 303 303 302 302 302 303 302 302 302 302 302 301 300 300 301 301 301 301 300 300 300 300 300 300 301 301 301 300 300 299 299 299 299 299 299 299 298 298 297 297 296 296 295 295 295 295 295 295 295 294 294 294 294 295 295 295 295 295 295 295 295 295 294 294 294 294 295 294 294 293 293 295 295 296
313 313 312 313 312 311 311 310 309 309 308 308 306 306 305 305 305 304 304 303 303 304 304 303 303 303 302 302 302 301 302 302 302 301 301 300 301 301 301 301 301 300 300 300 300 300 301 301 301 301 300 300 299 299 299 299 299 299 299 298 298 297 297 296 295 295 295 295 295 295 295 294 294 294 293 293 293 293 294 293 294 293 293 293 293 293 293 293 293 293 293 293 292 291 292 293 295
312 312 312 312 311 310 309 308 308 308 308 308 307 307 307 306 306 305 305 304 303 304 304 303 304 303 303 302 301 301 301 302 301 300 301 300 300 301 301 301 301 300 300 300 300 301 301 301 301 301 301 300 300 299 300 300 299 299 299 298 298 297 296 296 295 295 295 295 295 295 294 294 293 293 293 293 293 292 292 292 292 292 292 292 292 291 292 292 291 292 292 292 291 290 291 291 292
313 313 312 312 311 310 309 308 307 307 307 307 307 308 307 306 305 305 305 304 304 304 304 303 304 303 302 302 301 301 301 301 300 300 301 300 300 300 300 300 300 300 300 300 301 301 301 301 301 301 301 300 300 300 300 300 299 299 299 298 298 297 297 296 295 295 295 295 295 295 294 294 294 293 293 293 292 292 292 292 292 292 291 291 291 291 291 291 290 291 291 291 290 290 290 290 290
314 313 312 312 310 309 308 308 307 307 307 307 307 307 307 306 305 305 304 303 303 303 304 303 303 303 302 302 302 301 301 300 300 300 300 300 300 300 300 300 300 300 299 300 300 301 301 301 301 301 301 300 300 300 300 300 300 299 299 298 298 297 297 296 295 295 295 295 295 295 294 294 294 293 293 293 292 292 292 292 292 291 291 291 291 290 290 290 290 290 290 290 289 289 289 289 289
314 313 313 312 310 309 308 307 307 306 306 307 307 307 306 306 305 304 304 303 303 303 303 304 303 303 303 302 302 302 301 300 301 301 300 300 300 300 300 300 300 300 299 300 300 301 301 301 301 301 301 301 300 300 300 300 300 300 299 298 298 297 297 296 295 295 295 295 295 295 294 294 294 293 293 293 292 292 292 292 292 292 291 291 290 290 290 290 290 290 290 289 289 289 289 289 289
315 314 313 312 310 309 308 307 307 307 306 306 307 307 307 306 305 305 304 304 304 304 303 303 303 303 303 302 301 301 300 301 302 301 300 300 300 300 300 300 300 300 300 300 300 300 301 301 301 301 301 301 300 300 300 300 300 300 299 299 298 297 297 296 296 296 296 295 295 295 294 294 294 293 293 293 293 292 293 292 292 292 291 291 290 290 290 290 290 290 290 289 289 289 288 288 288
313 313 312 311 311 310 309 308 308 307 306 306 306 307 307 306 305 305 305 305 304 304 303 303 303 304 303 302 301 301 301 301 301 301 300 300 300 300 300 300 300 300 300 300 301 301 301 301 301 301 301 301 300 300 300 300 300 300 300 299 298 298 297 296 296 296 296 295 295 295 294 294 294 294 293 293 293 293 293 292 292 292 291 291 291 290 290 290 290 290 290 289 289 289 288 288 288
313 313 313 312 311 310 309 309 308 307 306 306 306 306 306 306 305 305 305 305 304 303 302 302 303 304 302 302 301 301 301 301 301 301 300 300 300 300 300 300 300 300 300 301 301 301 301 301 301 301 301 301 301 300 300 300 300 300 300 300 299 298 297 296 296 296 296 295 295 295 294 294 294 294 294 293 293 293 293 293 292 292 292 291 290 290 290 290 290 290 289 289 289 289 288 288 288
315 314 314 312 311 310 310 309 307 306 305 305 305 305 305 305 305 305 305 305 304 302 303 303 304 304 303 303 303 302 302 301 301 300 300 300 300 300 299 299 300 300 300 300 300 300 301 301 301 301 301 301 301 300 300 300 300 300 300 300 299 298 298 297 296 296 295 295 295 295 295 295 294 294 294 293 293 293 293 293 292 292 292 291 291 290 290 290 290 290 289 289 289 289 288 288 288
315 314 314 312 310 310 310 309 307 306 305 304 304 304 303 303 303 304 303 303 303 302 303 303 303 304 304 303 303 302 302 301 301 300 300 300 300 299 299 300 300 300 300 300 300 301 301 301 301 301 301 301 301 301 300 300 300 300 300 300 299 299 298 297 296 296 295 295 295 295 295 295 294 294 294 294 293 293 293 293 292 292 292 291 291 291 290 290 290 289 289 289 289 289 289 288 288
315 314 314 312 311 310 309 309 308 305 304 303 304 304 303 302 302 303 303 303 302 302 302 302 302 303 303 303 303 302 301 301 301 300 300 300 300 300 300 301 300 301 300 300 300 300 301 301 301 301 301 301 300 301 300 300 300 300 300 300 300 299 298 297 297 296 296 296 295 295 295 295 294 295 294 294 294 294 293 293 292 292 292 291 291 291 290 290 290 290 289 289 289 289 289 289 288
315 314 312 311 310 309 308 307 307 305 303 304 304 304 303 302 302 302 303 303 303 302 301 301 302 302 302 302 302 301 301 301 301 300 300 300 301 302 302 302 301 301 301 300 300 300 300 301 300 301 301 301 301 301 301 300 300 300 299 300 300 300 299 298 297 296 296 296 296 296 295 295 295 295 295 294 294 294 293 293 292 292 292 292 291 291 291 291 290 290 290 289 289 289 289 289 288
312 312 311 311 310 309 308 307 306 305 304 305 305 304 304 303 303 303 303 303 303 303 302 302 302 301 301 301 301 301 301 301 300 301 301 301 302 302 302 302 302 302 301 301 301 300 300 300 300 300 300 301 301 301 300 300 300 300 299 299 300 300 300 299 298 297 296 296 296 296 295 295 295 295 295 294 294 293 293 293 293 292 292 292 291 291 291 291 291 290 290 290 290 290 289 289 288
311 310 310 310 309 309 308 307 306 305 305 305 304 304 304 303 303 303 304 303 303 304 303 303 302 301 301 300 301 301 300 301 300 301 302 302 302 302 302 302 302 302 301 301 300 300 300 300 301 300 301 301 301 301 301 301 300 300 299 300 300 300 300 299 299 298 297 296 296 296 295 295 295 295 295 294 294 293 293 293 293 292 292 292 292 292 292 291 291 291 291 290 290 290 290 289 288
310 308 309 309 308 308 307 306 305 305 305 304 304 303 303 303 303 303 304 304 304 305 304 303 303 302 301 301 301 300 301 301 300 301 302 302 302 302 302 302 302 302 302 301 300 300 300 300 301 301 301 301 301 301 301 301 300 300 300 299 299 299 300 300 299 298 297 296 296 296 296 295 295 295 294 294 294 293 293 293 293 293 292 292 292 292 292 292 291 291 291 291 290 290 290 289 288
309 308 308 308 307 306 305 305 304 305 304 304 304 304 303 303 303 303 304 304 304 305 304 304 304 303 302 301 301 301 301 301 301 301 301 301 302 302 302 302 302 301 301 300 300 301 301 300 301 301 301 301 301 301 301 301 300 300 300 299 299 299 299 299 299 299 298 297 296 296 295 295 295 295 294 294 294 293 293 293 293 292 292 292 292 292 292 292 292 291 291 291 290 290 290 289 288
308 307 307 307 306 305 304 304 304 304 305 305 304 304 304 304 304 304 304 304 303 303 303 303 303 303 302 302 302 301 302 302 301 301 301 301 301 302 302 302 302 302 301 301 300 300 301 301 300 301 301 301 301 301 301 301 300 300 300 300 299 299 299 299 299 299 298 297 297 296 295 295 295 295 294 294 294 293 293 293 293 292 292 292 292 292 292 292 291 291 291 290 290 290 290 289 289
307 306 306 305 305 304 303 303 303 304 304 304 304 304 304 304 305 304 303 304 303 303 303 303 303 303 303 302 302 302 302 302 302 302 302 302 302 302 302 302 302 301 301 301 300 300 300 300 300 300 301 301 301 301 301 301 301 300 300 300 299 299 299 299 299 299 299 298 297 296 295 295 295 294 294 294 294 293 293 293 293 292 292 292 292 292 292 292 291 291 291 290 290 290 290 289 289
306 305 305 304 304 303 303 303 303 303 303 303 304 305 305 304 304 303 304 304 303 303 303 303 303 303 302 302 302 302 302 302 302 302 302 302 302 302 302 302 301 301 301 300 300 300 300 300 300 300 300 301 301 301 301 301 301 300 300 300 300 299 299 299 299 299 299 299 298 297 296 295 295 294 294 294 294 294 293 293 292 292 292 292 292 292 291 291 291 291 291 291 290 290 290 289 289
305 305 304 304 304 303 303 304 303 304 304 303 304 305 304 304 303 304 305 304 304 304 304 303 303 302 302 302 302 302 302 302 302 302 302 302 302 302 302 301 301 301 301 301 300 300 300 301 300 300 300 301 300 301 301 301 301 301 300 300 300 300 299 299 299 299 299 299 298 298 297 296 295 295 294 294 294 293 293 293 293 292 292 292 292 292 291 291 291 291 291 291 291 290 290 290 289
305 305 304 304 304 304 304 304 303 304 304 304 305 306 305 304 303 305 305 304 304 304 303 303 303 303 302 302 302 302 302 302 302 302 302 302 302 302 302 301 301 301 301 301 301 300 300 301 301 300 300 301 300 301 301 301 301 301 301 300 300 300 299 299 299 299 299 299 299 298 298 297 296 295 294 294 294 293 293 293 293 292 292 292 292 291 291 291 291 291 291 291 291 291 290 289 289
305 305 304 304 305 304 305 305 304 304 304 304 304 305 305 304 304 305 305 304 304 304 303 303 303 303 302 302 302 302 302 302 302 302 302 302 302 302 302 302 302 302 301 301 301 301 301 301 301 301 301 301 300 300 301 301 301 301 301 300 300 300 300 299 299 299 299 298 298 298 298 298 297 296 295 294 294 294 294 293 293 292 292 292 292 292 292 291 291 291 291 291 291 291 290 290 289
305 306 305 305 305 305 305 305 305 305 305 304 304 305 306 305 305 305 305 305 304 303 303 303 303 303 303 303 302 302 302 302 302 302 302 302 302 302 302 302 302 302 302 301 301 301 301 301 301 301 301 301 301 300 301 301 301 301 301 301 300 300 300 300 299 299 299 298 298 299 299 298 298 297 296 295 294 294 294 293 293 293 292 292 292 292 291 291 291 291 291 291 291 291 290 290 290
306 307 306 306 307 306 305 306 305 305 305 304 304 309 309 305 305 306 305 305 303 303 303 303 303 303 303 303 303 303 303 303 302 303 302 302 302 302 302 302 302 302 302 301 301 301 301 301 301 301 301 301 301 301 301 301 301 301 301 301 301 300 300 300 300 299 299 299 299 299 299 298 298 298 297 296 295 294 294 294 293 293 292 292 292 291 291 291 291 291 291 291 291 291 290 290 290
307 307 308 309 310 308 306 306 305 305 305 304 304 310 310 306 306 306 305 305 304 304 303 304 304 303 303 303 303 303 303 303 303 303 303 303 303 302 302 302 302 302 302 301 302 301 301 301 301 302 301 301 301 301 301 301 301 301 301 301 301 300 300 300 300 300 299 299 299 299 298 298 298 298 298 297 296 295 294 294 293 293 293 292 292 292 291 291 291 291 291 291 291 290 290 290 290
307 309 311 312 312 309 306 306 306 306 306 304 305 309 310 307 306 305 305 304 304 304 304 304 304 304 304 303 304 303 303 303 303 303 303 303 303 303 303 303 303 302 302 302 302 302 302 302 302 302 302 302 301 301 301 301 301 301 301 301 301 301 300 300 300 300 300 299 299 299 299 298 298 298 298 298 297 296 295 294 294 293 293 292 292 292 291 291 291 291 291 291 290 290 290 290 290
307 310 313 313 312 310 307 305 305 306 306 305 306 308 308 307 306 305 305 304 304 304 304 304 305 305 304 304 304 304 304 303 303 303 303 303 303 303 303 303 303 303 303 303 302 302 302 302 302 302 302 302 302 301 301 301 301 301 301 301 301 301 301 300 300 300 300 300 299 299 299 299 298 298 298 298 298 297 296 295 294 293 293 292 292 292 292 291 291 291 290 290 290 290 290 290 290
311 312 313 311 310 309 308 306 305 305 306 306 306 306 307 307 306 305 305 304 304 304 304 305 305 305 305 305 304 304 304 304 303 304 303 303 303 303 303 303 303 303 303 303 303 303 303 303 303 303 303 302 302 302 301 301 301 301 301 301 301 301 301 301 300 300 300 300 300 300 299 299 299 298 298 298 298 298 297 296 295 294 293 293 292 292 292 291 291 291 290 290 290 290 290 290 290
313 313 312 310 308 308 309 308 305 305 306 307 307 307 308 308 306 305 305 305 304 304 304 305 305 306 305 305 305 304 304 304 304 304 304 304 304 304 304 304 304 303 303 303 303 303 303 303 303 303 303 303 302 302 302 301 301 301 301 301 301 301 301 301 300 300 300 300 300 300 300 300 299 299 298 298 298 298 298 297 297 296 295 293 293 292 292 291 291 291 290 290 290 290 289 290 290
310 312 312 312 310 308 308 307 305 305 307 307 308 308 310 310 307 305 305 305 304 305 305 305 305 305 306 306 305 305 305 305 305 304 304 304 304 304 304 304 304 304 303 303 303 303 303 303 303 303 303 303 303 302 302 302 302 301 301 301 301 301 301 301 301 300 300 300 300 300 300 300 300 299 299 298 298 297 297 297 297 297 296 295 293 292 292 291 291 291 290 290 290 290 290 289 289
309 311 313 313 312 309 307 307 304 305 308 309 309 310 310 310 309 307 305 305 304 305 305 305 305 305 306 306 306 306 305 306 305 305 305 304 304 304 304 304 304 304 303 303 303 303 303 303 303 304 303 303 303 303 302 302 302 302 301 301 301 301 301 301 301 301 301 300 300 300 300 300 300 300 300 299 299 298 298 297 297 297 297 296 295 293 292 291 291 290 290 290 290 290 290 289 289
310 312 313 314 314 310 307 306 305 305 308 310 309 310 311 310 310 307 305 305 304 305 306 305 306 306 306 306 306 306 306 306 306 305 305 305 305 305 304 304 304 304 304 303 303 303 303 303 304 304 304 303 303 303 303 302 302 302 302 301 301 301 301 301 301 301 301 301 300 300 300 300 300 300 300 300 300 299 298 298 297 297 297 297 296 295 293 292 291 290 290 290 290 289 289 289 289
313 314 315 315 314 311 307 306 305 305 308 311 309 310 312 310 309 307 306 306 306 306 306 306 306 306 306 307 307 307 307 307 307 306 306 306 306 305 305 305 304 304 304 304 304 304 304 304 304 304 304 304 304 303 303 303 303 302 302 302 302 302 302 301 301 301 301 301 301 300 300 300 300 300 300 300 300 300 300 299 298 298 297 297 296 296 295 294 292 291 290 290 290 289 289 289 289
315 317 317 316 313 312 310 307 306 306 308 308 308 310 313 311 309 308 307 307 307 308 307 307 307 307 307 307 307 307 307 307 307 307 306 306 306 306 306 306 305 305 305 304 304 304 304 304 304 304 304 304 304 304 304 303 303 303 303 302 302 302 302 301 301 301 301 301 301 301 300 300 300 300 300 300 300 300 300 300 299 299 298 297 297 297 296 295 294 292 291 290 290 289 289 289 288
316 316 315 314 312 309 309 309 308 308 308 307 309 313 314 312 311 310 308 306 307 307 307 307 307 307 307 306 307 307 306 306 306 306 306 306 306 306 306 306 306 305 305 305 305 305 304 304 304 304 304 304 304 304 304 304 303 303 303 303 303 302 302 302 302 302 301 301 301 301 301 301 300 300 300 300 300 300 300 300 300 299 299 298 298 297 297 296 296 294 292 291 290 289 289 289 288
316 312 311 310 309 308 309 311 311 312 312 310 312 316 316 314 314 312 310 308 308 307 307 307 308 307 307 307 307 307 307 307 306 306 306 306 305 305 305 305 305 306 305 305 305 305 304 304 304 304 304 304 304 304 304 304 304 303 303 303 303 303 303 303 303 302 302 302 302 301 301 301 301 301 300 300 300 300 300 300 300 300 300 299 299 298 298 297 297 296 295 293 292 290 290 289 289
316 310 308 307 307 310 312 313 314 314 315 312 312 316 317 316 315 313 312 311 311 309 308 309 309 308 308 308 308 307 307 307 307 306 306 306 306 305 305 305 305 305 305 305 305 305 305 305 304 304 304 304 304 304 304 303 304 303 303 303 303 303 303 303 303 303 302 302 302 302 302 302 301 301 301 300 300 300 300 300 300 300 300 300 299 299 298 298 298 297 297 296 294 292 291 291 290
317 309 306 308 308 310 312 313 316 316 314 314 313 314 316 316 315 314 313 313 313 312 310 309 309 309 308 308 307 307 307 307 307 307 306 306 306 306 306 305 305 305 305 305 305 305 305 305 304 304 304 304 303 303 303 303 303 303 303 303 303 303 303 303 303 302 302 302 302 302 302 302 302 301 301 300 300 300 300 300 300 300 300 299 299 299 299 298 298 298 298 297 296 295 294 293 292
314 306 306 308 308 309 310 313 317 315 314 316 315 314 315 316 315 314 315 315 314 313 312 310 309 310 309 309 308 307 307 307 307 307 307 307 307 306 306 306 305 305 305 305 305 305 305 305 305 304 304 304 303 303 303 303 303 303 302 302 302 302 302 302 302 302 302 301 302 302 302 302 302 301 301 301 300 300 300 300 300 300 299 299 299 299 299 299 298 298 298 298 297 297 296 294 294
309 304 306 308 307 309 310 312 315 314 315 317 315 313 315 317 317 317 317 316 313 312 312 311 310 309 309 309 308 307 307 307 307 307 307 306 306 306 306 306 306 305 305 304 305 305 305 305 305 304 304 304 304 303 303 303 303 302 302 302 302 302 302 302 302 302 301 301 301 301 301 301 301 301 301 301 300 300 300 300 300 299 299 299 299 299 299 299 299 298 298 298 298 297 297 296 296
306 306 311 312 311 312 312 312 314 315 317 316 311 310 312 316 318 317 316 314 312 312 311 310 309 309 309 308 308 308 308 308 308 308 308 308 307 307 307 307 307 307 306 306 306 305 305 305 305 305 304 304 304 303 303 303 303 303 303 303 303 302 302 302 301 301 301 301 301 301 301 301 300 300 300 300 300 300 300 300 299 299 299 299 299 299 299 299 298 298 298 298 298 297 297 296 296
307 311 314 317 317 314 313 314 315 318 319 315 310 309 311 316 318 315 314 312 311 311 310 310 310 309 309 309 309 309 309 309 309 309 309 309 309 309 309 309 309 308 308 308 308 308 308 308 307 307 306 305 305 304 304 303 303 303 303 303 303 302 302 302 302 302 301 301 301 301 300 300 300 300 300 300 300 300 300 299 299 299 299 299 298 298 298 298 298 298 298 298 298 298 297 296 296
309 313 315 319 320 316 316 318 319 320 319 312 309 310 314 318 317 314 313 312 311 310 310 310 309 309 309 309 309 309 309 309 309 309 309 309 309 309 308 308 308 308 308 308 308 308 308 308 308 308 308 307 306 306 305 305 304 304 303 303 303 302 302 302 302 302 302 301 301 301 301 300 300 300 300 300 300 299 299 299 299 299 299 298 298 298 298 298 298 298 298 298 298 298 297 297 297
312 314 316 319 320 318 318 319 318 319 318 313 309 312 317 317 316 314 313 312 311 310 310 310 310 310 309 309 310 309 309 309 309 309 309 308 307 307 306 306 306 306 307 307 307 306 306 306 306 306 307 307 307 307 306 306 306 305 305 304 303 303 302 302 302 302 301 301 301 301 300 300 300 300 300 300 300 299 299 299 299 299 299 298 298 298 298 298 297 297 297 297 297 297 297 297 297
314 312 313 317 318 317 319 320 320 319 319 316 311 314 319 317 316 315 312 311 310 310 310 310 310 310 310 310 310 309 309 309 308 308 307 306 306 306 306 306 306 307 306 306 306 306 306 305 304 304 305 305 306 306 306 306 306 306 306 305 305 304 303 303 302 301 301 301 301 301 301 300 300 300 300 300 300 300 300 299 299 299 299 298 298 298 298 298 297 297 297 297 297 297 297 296 296
313 310 314 317 314 316 320 318 317 319 320 319 316 318 319 316 315 313 310 310 310 310 310 310 310 310 310 311 310 309 309 308 308 306 306 305 305 306 306 306 306 307 307 307 306 305 305 304 304 303 303 303 304 305 306 306 306 306 306 306 305 305 305 304 303 302 301 301 301 301 301 300 300 300 300 300 300 300 300 300 299 299 298 298 298 298 298 298 297 297 297 297 297 296 296 296 296
312 312 315 313 307 314 322 317 313 316 320 320 317 318 317 315 315 312 311 311 310 309 310 310 311 311 311 311 310 309 309 308 307 306 305 305 305 306 306 306 307 307 307 307 306 306 305 304 304 303 303 303 303 303 304 305 305 305 305 305 305 305 305 305 304 304 303 302 302 301 301 301 300 300 300 299 299 299 299 299 299 299 298 298 298 298 298 298 297 297 297 297 297 296 296 296 296
311 315 312 308 306 311 318 318 318 319 321 319 316 316 316 317 317 313 311 313 312 311 310 311 311 311 311 311 310 309 309 308 307 306 305 305 306 306 306 306 307 307 307 307 306 306 305 304 304 303 303 302 302 302 303 303 304 304 304 305 305 305 305 305 305 305 304 304 303 303 302 302 301 300 300 299 298 298 298 298 298 298 298 298 298 298 297 297 297 297 297 297 297 296 296 296 296
306 310 307 309 315 316 317 318 319 320 319 318 317 315 316 319 319 315 313 314 314 313 312 311 311 311 311 310 309 309 309 308 307 306 306 306 306 306 306 307 308 307 307 307 307 306 305 305 304 303 303 302 302 302 302 302 302 303 303 303 304 304 304 304 304 304 304 304 304 304 303 303 302 301 300 300 299 298 298 298 297 297 297 297 297 297 297 297 297 297 297 297 297 296 296 296 295
302 306 306 309 314 316 317 317 318 320 320 318 317 317 321 325 323 319 315 314 315 315 314 311 311 311 310 310 309 309 308 308 307 306 306 306 306 306 306 308 308 307 307 307 306 306 305 305 304 304 303 302 302 302 302 302 302 302 302 302 303 303 303 303 303 303 304 303 303 303 303 303 302 301 301 300 300 299 299 298 298 298 298 298 298 298 298 298 298 298 298 298 297 297 296 296 296
308 311 312 311 311 312 314 315 315 317 320 320 318 320 325 323 319 318 316 313 314 315 313 312 311 311 310 309 308 308 308 308 307 307 306 306 306 306 307 308 307 306 306 306 306 306 305 305 304 304 303 303 302 302 302 302 302 302 302 302 302 302 302 303 303 303 303 303 303 303 303 302 302 302 301 301 301 300 300 299 299 299 299 299 299 298 298 298 298 298 298 298 297 297 297 296 296
310 313 314 315 315 315 318 317 314 313 317 320 318 322 328 322 314 315 315 312 312 312 312 312 311 310 309 308 308 308 308 308 307 307 306 305 305 306 308 307 307 306 306 306 306 305 305 305 304 304 303 303 303 302 302 302 302 302 302 302 302 302 302 302 302 302 302 302 302 302 302 302 302 302 301 301 301 301 300 300 300 299 299 299 299 298 298 298 298 298 298 297 297 297 296 296 295
Wind_Speed
16 17 16 16 14 15 19 11 9 8 5 10 10 7 8 10 10 9 10 10 9 11 14 13 16 19 15 15 17 17 15 10 6 4 4 5 4 3 6 9 12 13 12 14 11 12 17 17 17 18 17 18 18 21 23 24 24 23 23 22 23 23 23 23 22 22 22 21 21 22 21 22 21 20 20 20 20 20 21 21 21 21 21 21 20 21 21 21 21 21 21 20 21 21 21 21 21
15 14 13 12 10 10 9 4 5 6 6 11 9 7 8 9 11 11 10 10 8 8 11 11 13 17 17 19 18 16 16 15 14 13 10 8 5 5 7 11 12 12 14 14 9 12 17 18 20 20 18 18 21 24 24 25 24 23 23 22 23 23 23 23 23 23 23 23 23 23 23 23 22 22 21 20 20 20 21 21 21 21 21 21 21 21 21 22 21 21 21 20 20 21 21 21 21
14 10 7 10 12 11 8 4 5 6 7 10 7 7 8 9 10 10 11 11 9 7 8 9 13 14 14 16 14 11 9 11 12 13 11 6 3 5 8 14 11 10 12 10 9 14 16 18 21 22 22 22 24 25 25 24 23 23 22 22 23 23 23 23 23 23 23 23 23 23 22 22 22 22 21 20 20 20 20 20 21 21 20 21 21 22 22 21 21 21 22 21 20 20 21 21 21
15 13 8 13 17 14 8 5 6 6 8 8 6 7 8 9 10 11 12 10 7 8 9 9 11 11 13 12 10 12 9 9 9 8 8 6 3 3 10 15 7 7 9 8 10 14 16 18 20 22 24 25 26 25 24 24 23 23 22 23 23 23 23 23 23 23 23 23 23 22 22 22 21 21 21 20 20 20 21 21 21 21 21 21 21 21 21 21 21 21 21 21 20 20 20 20 20
19 20 18 22 19 10 5 4 5 7 8 7 5 8 8 9 10 11 11 8 8 7 8 9 7 9 12 11 8 8 7 8 8 7 6 6 5 5 12 12 4 5 8 9 12 13 16 18 20 22 24 25 25 25 24 23 23 23 22 23 23 23 23 23 23 23 23 23 23 22 22 22 21 21 21 21 21 21 21 22 22 22 22 21 21 21 22 21 21 21 21 21 20 20 20 20 21
22 28 29 28 19 9 7 7 8 8 9 7 6 8 9 11 12 13 13 10 9 7 8 10 8 10 11 10 10 8 6 5 5 7 4 5 6 8 12 8 3 5 7 10 11 13 16 18 20 22 24 25 25 24 24 23 23 22 22 23 23 23 23 24 24 24 23 23 22 22 22 21 21 21 21 22 22 23 23 23 23 24 24 22 22 22 22 22 22 22 21 21 21 21 21 21 21
17 27 26 20 16 12 8 8 9 8 10 9 8 9 10 13 13 14 13 10 9 8 9 9 10 11 8 5 8 7 8 7 6 6 5 6 7 9 12 5 3 5 7 10 11 13 16 17 20 21 23 24 24 24 23 22 22 22 22 22 23 23 23 24 24 24 23 22 22 21 21 21 22 22 22 23 24 24 24 25 25 25 25 25 24 24 23 23 23 23 22 21 21 21 21 20 20
21 28 22 12 8 7 7 10 9 7 10 12 11 10 10 13 12 11 11 10 8 7 7 7 9 9 5 4 6 5 5 6 6 7 7 8 8 10 11 5 1 5 8 9 11 14 16 17 19 21 23 23 24 23 22 22 22 22 22 22 22 23 23 23 24 23 22 21 21 21 21 21 22 23 23 24 24 25 25 26 27 27 27 27 26 25 25 25 25 25 24 23 22 21 20 20 20
22 25 18 10 7 6 8 9 9 8 9 10 11 11 11 13 13 12 12 10 9 8 7 5 6 6 7 10 8 5 3 5 6 7 7 7 8 8 8 7 3 4 7 9 11 13 15 17 18 20 21 22 23 22 22 22 22 22 21 22 22 22 23 23 23 22 21 20 20 21 21 22 22 23 23 24 24 26 27 28 29 29 29 28 28 27 27 26 26 26 26 25 24 23 22 20 19
19 19 13 7 6 8 8 7 8 8 8 10 11 10 10 12 14 14 13 11 10 11 10 9 10 9 10 11 8 5 4 5 5 6 6 6 8 7 4 5 5 4 6 8 10 12 14 15 17 18 19 20 21 21 21 21 21 21 21 21 21 22 22 22 22 22 21 20 21 22 22 22 22 23 23 24 25 27 28 30 30 30 30 30 29 28 27 27 27 26 26 26 25 24 23 22 21
14 15 12 6 6 8 7 7 7 7 8 9 9 10 11 12 14 14 13 12 10 10 8 6 10 12 11 9 7 6 6 6 5 3 4 5 7 8 2 3 5 4 6 6 9 12 13 14 15 16 17 18 19 20 20 21 21 20 21 21 21 21 22 22 22 22 21 21 21 21 22 22 22 23 24 25 26 27 28 30 30 30 30 29 29 28 28 27 27 26 26 26 25 25 24 24 22
10 10 8 5 6 7 7 8 8 8 7 6 7 7 7 10 13 11 12 10 9 10 6 3 7 8 8 7 5 6 5 6 5 6 4 5 5 7 5 1 4 5 6 7 10 11 13 15 16 16 16 16 18 20 20 21 20 20 20 20 21 21 22 23 23 22 21 21 21 21 22 22 23 23 24 25 26 27 28 29 30 30 30 29 28 28 27 27 27 26 26 26 26 25 24 23 23
15 10 7 6 7 6 8 8 7 8 6 5 6 3 3 9 11 10 11 9 9 9 6 6 6 0 6 9 6 6 5 6 7 8 5 5 1 4 6 2 3 5 5 6 9 10 12 14 15 16 17 17 18 19 20 20 20 20 20 20 21 21 22 22 22 21 20 20 21 21 22 22 23 23 24 25 26 27 27 28 29 30 29 29 28 27 27 27 27 26 26 26 26 25 24 22 22
17 12 7 6 6 6 7 7 6 6 4 5 6 5 7 10 8 7 9 9 10 7 5 7 3 3 7 10 6 7 8 8 8 8 6 6 4 3 5 3 3 5 5 7 9 10 11 12 13 14 16 17 18 19 19 20 20 19 19 20 21 21 21 22 22 21 20 20 21 21 21 22 23 23 24 25 26 26 26 28 29 29 29 28 28 27 26 26 26 26 26 26 26 25 24 22 21
18 13 6 5 6 6 5 5 6 6 4 5 5 7 10 9 5 6 9 8 6 6 7 4 1 2 3 6 8 11 11 9 7 8 7 7 5 2 3 3 3 4 5 7 8 9 10 11 12 13 14 15 17 18 19 19 19 18 18 19 20 20 20 21 21 21 20 20 20 20 20 21 22 22 23 24 25 25 26 27 28 29 29 28 28 26 26 26 25 25 26 26 25 25 24 23 22
18 12 5 5 6 5 5 6 7 5 5 7 7 10 10 7 4 6 9 7 7 7 4 2 2 4 3 8 12 13 10 7 7 7 7 7 5 3 2 2 3 4 5 6 6 7 8 10 11 12 13 14 16 17 17 18 17 17 18 18 18 18 19 19 20 20 20 19 19 19 19 20 21 21 23 24 24 24 25 26 27 28 28 28 27 26 25 25 24 24 25 25 25 25 25 24 23
16 12 5 6 6 5 3 4 5 5 7 8 8 10 10 6 5 9 10 7 8 6 3 4 5 6 6 10 11 10 7 7 7 6 6 5 4 2 3 5 5 5 6 6 6 7 8 8 10 11 12 13 15 16 16 16 15 17 17 17 17 17 18 19 19 20 19 19 18 18 19 20 20 21 22 22 22 23 24 25 25 26 26 27 26 25 25 24 24 24 25 25 25 26 26 26 24
10 6 6 6 5 5 6 6 8 9 8 8 7 8 11 7 6 9 8 7 8 6 4 6 5 4 7 8 8 7 7 7 7 6 5 3 2 1 5 7 7 7 9 9 7 8 9 9 10 11 12 13 14 14 15 16 16 19 18 17 17 17 18 18 19 20 19 19 18 19 19 20 19 20 20 21 22 22 23 23 23 24 25 26 26 25 25 24 24 25 25 25 25 25 26 26 25
12 4 6 6 4 7 10 11 13 11 9 11 6 5 11 8 7 7 5 7 8 7 6 5 4 4 7 7 7 7 8 8 7 6 4 1 1 1 4 5 6 6 9 11 10 9 10 10 11 12 13 13 14 15 16 17 18 20 19 18 19 19 19 19 19 19 19 19 19 19 19 18 18 19 19 20 21 21 21 22 23 24 24 25 26 25 25 25 25 25 25 25 25 25 25 26 26
13 7 6 4 7 10 13 15 15 13 12 13 7 6 10 7 5 4 5 9 8 8 9 8 8 7 8 8 8 8 8 7 7 6 5 5 4 5 4 4 6 7 7 9 11 9 9 11 11 11 12 13 14 15 16 18 19 19 19 19 19 19 18 19 19 18 19 20 19 18 18 18 18 18 19 19 19 20 20 21 22 23 24 25 25 26 25 25 25 25 25 25 25 26 26 27 26
10 9 7 7 10 9 11 14 14 13 12 12 9 8 8 5 4 2 4 7 6 7 9 8 10 10 9 9 9 8 8 8 7 7 8 8 8 7 6 6 6 6 7 8 11 9 7 10 11 11 11 13 14 15 16 17 18 17 18 18 19 18 17 18 18 18 19 19 18 18 18 18 18 18 18 18 19 19 20 21 21 22 23 24 25 26 26 26 25 25 25 26 26 26 26 27 27
12 11 13 14 12 8 9 12 11 10 11 10 8 7 7 5 4 2 2 1 1 6 8 5 7 10 10 9 9 8 8 8 8 7 8 9 8 7 6 6 7 8 9 8 9 10 9 10 11 12 11 12 13 14 15 15 16 16 17 17 17 17 17 17 17 18 18 18 18 18 18 18 18 18 18 18 19 19 20 21 21 22 23 24 25 25 26 26 26 26 26 26 26 26 26 26 26
9 10 16 17 13 11 10 11 10 7 8 7 6 7 6 4 3 2 2 1 3 7 8 6 6 8 9 8 9 9 9 9 8 7 6 6 7 7 6 6 7 8 10 9 9 11 12 11 11 13 12 12 13 14 15 15 15 16 17 17 17 17 18 17 17 18 18 17 18 18 18 18 18 18 19 19 19 19 20 20 21 22 22 23 24 25 25 26 26 26 26 26 26 25 25 25 25
12 9 14 16 14 12 11 10 9 7 8 8 6 6 4 1 1 2 3 3 4 5 6 8 8 8 8 9 9 9 9 9 9 8 8 7 7 7 7 8 9 9 10 11 10 11 13 12 11 13 13 13 13 13 14 15 16 16 17 17 18 18 18 18 18 18 18 18 18 18 19 19 19 18 19 19 19 19 20 20 21 22 22 23 23 24 25 25 25 26 26 26 26 25 25 24 24
12 9 12 14 13 11 10 9 8 7 7 6 4 3 3 0 1 3 4 6 6 5 5 7 9 10 9 10 10 9 9 10 9 9 9 9 9 8 9 10 10 10 10 10 11 12 14 13 12 13 14 13 13 14 14 15 16 16 16 17 18 18 18 18 18 18 18 19 18 18 19 19 19 19 19 19 19 20 20 21 21 22 22 22 23 24 24 24 25 25 25 26 25 25 25 24 24
9 13 14 14 12 10 9 7 6 6 4 4 2 1 3 1 3 4 7 9 8 6 5 6 7 9 10 10 10 10 10 10 10 10 10 11 11 11 12 12 11 10 10 10 11 13 15 14 13 14 15 14 14 14 14 15 16 16 16 17 18 19 19 19 19 18 18 19 19 19 19 19 20 20 20 20 20 20 20 20 21 22 22 23 23 23 23 24 24 25 25 25 26 26 26 25 24
14 18 16 14 12 8 6 6 5 4 3 3 5 2 2 1 2 3 8 11 9 7 6 7 7 7 8 9 10 10 10 10 10 11 11 12 13 13 12 12 12 11 11 11 11 13 16 16 14 15 16 15 15 15 14 15 16 16 17 17 17 18 19 19 19 19 19 19 20 20 20 20 20 20 20 20 20 20 20 20 20 21 21 22 23 23 23 23 24 25 25 25 26 26 26 25 25
20 19 15 12 11 7 6 6 3 1 2 2 4 5 1 2 2 4 11 13 10 7 7 7 7 7 7 8 9 10 11 10 11 12 13 13 13 14 13 12 12 12 13 13 12 13 16 17 16 16 17 16 15 16 15 15 16 16 16 17 17 18 18 19 20 20 20 20 20 20 20 20 20 20 21 20 20 20 20 20 19 20 20 21 22 22 23 23 23 23 24 24 25 25 25 25 24
19 14 9 7 8 6 3 4 2 1 0 1 2 4 3 6 5 7 12 12 9 8 7 8 8 8 8 9 9 10 11 11 12 14 14 14 14 14 13 12 11 12 13 14 15 15 16 18 18 18 18 17 16 17 16 15 16 16 16 17 16 18 18 19 19 20 21 20 20 20 20 21 21 21 21 21 21 20 20 20 19 19 19 20 21 21 22 22 22 22 22 23 23 23 24 24 23
10 6 6 5 5 3 2 4 2 2 1 1 1 2 2 8 10 11 11 10 10 9 9 10 10 9 9 10 10 11 12 12 13 14 14 14 14 14 13 12 12 13 14 14 16 17 18 19 19 19 19 18 17 18 18 17 17 16 17 17 17 17 18 19 19 20 21 21 20 20 21 21 21 21 21 21 21 21 20 20 20 19 19 19 19 20 21 21 21 22 22 22 22 22 23 23 23
3 4 4 3 2 1 2 3 1 1 1 1 1 1 0 5 11 13 11 10 11 11 10 11 11 10 11 11 12 13 13 14 14 14 14 14 14 13 13 13 13 14 15 16 17 17 19 20 19 19 19 19 19 19 19 18 18 18 18 18 17 18 19 19 19 20 21 21 21 21 21 21 21 21 21 21 21 21 21 21 20 19 19 19 19 19 20 20 21 21 21 21 21 22 22 22 23
2 3 1 2 2 2 2 2 1 1 1 3 2 1 1 5 11 13 12 12 12 11 11 11 12 12 12 12 12 14 14 14 14 14 15 15 15 14 14 14 14 14 15 16 17 17 18 20 20 19 19 19 19 19 19 19 19 18 18 19 19 18 19 20 19 20 20 21 21 21 21 20 20 21 21 21 21 21 21 21 21 20 20 19 19 19 19 19 20 20 21 21 21 21 21 21 21
2 2 1 1 2 3 2 1 1 2 1 4 4 2 3 3 10 12 13 14 13 12 11 11 12 12 12 13 13 13 14 14 15 16 16 16 16 16 16 15 14 14 15 15 16 17 18 19 20 19 19 19 19 20 19 19 19 19 19 19 19 19 19 20 19 20 20 20 21 21 21 20 20 20 20 20 20 20 21 21 21 21 20 20 19 19 19 19 19 20 20 21 21 21 21 21 21
1 2 2 1 2 3 2 0 1 2 2 3 4 3 6 3 12 14 14 15 14 13 13 12 11 12 12 13 13 14 15 15 16 17 16 16 16 16 17 15 14 14 15 15 16 17 18 19 20 19 19 19 19 20 20 19 20 20 20 20 20 20 19 19 20 20 20 20 20 20 21 20 20 20 20 20 20 20 20 20 20 20 20 20 20 20 20 20 20 20 20 20 21 21 21 21 21
3 2 2 1 1 2 1 2 1 2 3 3 3 5 9 6 12 15 15 16 16 15 14 12 11 12 12 13 14 15 16 17 17 17 16 16 16 17 17 16 15 15 16 16 16 17 18 19 20 19 19 19 19 20 20 19 19 20 20 20 20 20 20 19 19 20 20 20 20 20 20 20 20 20 20 20 20 20 20 20 20 20 20 20 20 20 20 20 20 20 21 20 20 20 21 21 22
4 3 3 2 2 2 2 3 1 2 1 4 5 5 7 6 7 15 17 17 17 15 13 13 12 12 13 13 15 16 17 18 16 15 16 16 17 18 19 18 17 16 16 17 17 17 18 19 20 19 18 19 19 20 20 19 20 20 20 21 21 20 20 19 18 18 19 19 19 20 19 20 21 20 20 20 20 20 20 20 20 20 20 20 20 20 20 20 20 20 20 21 21 20 21 21 22
4 4 3 2 3 1 2 2 2 1 2 4 5 5 7 7 5 11 18 17 16 15 13 14 14 14 14 14 15 16 17 17 15 14 16 17 18 19 19 19 18 17 17 18 18 18 18 19 20 20 19 19 19 20 20 19 19 20 20 21 21 21 21 20 19 18 18 18 19 20 19 19 20 21 21 21 21 21 21 21 20 20 20 20 20 20 20 20 20 20 20 20 21 21 22 21 21
4 4 3 2 4 2 2 3 1 1 1 1 0 5 7 3 2 5 16 15 14 15 15 15 15 15 15 15 16 16 16 16 15 15 16 16 17 18 19 20 20 19 19 18 19 19 19 20 21 21 20 19 19 20 20 19 19 20 21 21 22 22 22 21 21 20 19 19 19 20 20 20 20 21 21 21 21 21 21 21 21 20 20 20 20 20 20 20 20 20 20 19 20 21 22 22 22
4 4 3 2 2 1 2 2 1 1 0 1 5 6 5 2 5 7 12 11 10 12 13 13 13 14 14 14 14 14 14 14 15 16 16 16 16 17 17 18 18 19 19 19 19 19 19 20 20 20 20 20 20 20 20 20 20 20 21 22 23 24 24 23 23 22 21 20 20 20 20 20 20 21 21 21 21 21 21 21 22 21 21 20 20 21 20 20 20 20 20 20 20 20 21 22 22
4 4 3 2 2 2 1 0 2 3 2 2 5 5 4 2 3 2 6 9 9 9 12 12 13 14 13 12 12 13 14 14 15 15 16 15 16 18 17 15 15 16 18 19 19 18 19 19 20 20 21 21 21 20 20 20 21 21 22 22 23 24 24 25 24 23 23 22 22 21 21 21 21 21 21 22 22 21 21 21 22 22 21 21 20 21 21 21 21 21 21 22 21 21 21 21 21
4 5 3 1 2 2 1 2 3 2 2 2 2 4 3 2 3 1 3 6 8 9 11 12 13 12 11 11 11 12 13 14 15 16 16 16 17 19 20 18 16 15 16 17 18 19 19 20 20 20 21 22 22 21 21 21 22 23 23 23 23 24 24 25 25 24 23 23 23 22 22 22 22 22 22 22 22 22 21 21 21 22 22 22 21 21 21 21 21 21 21 22 22 23 22 21 21
2 3 3 2 2 3 4 5 3 1 1 3 1 2 3 1 4 2 3 4 4 6 8 8 8 7 7 8 8 8 9 11 12 13 14 15 17 19 22 22 20 18 16 17 18 19 20 21 21 22 23 24 24 24 23 23 23 24 25 25 25 25 25 24 24 24 24 24 24 23 23 22 23 23 23 22 23 23 23 22 21 21 22 22 22 21 21 21 21 21 21 22 22 23 23 23 21
1 2 2 3 2 2 5 5 2 1 1 3 1 3 2 2 3 1 1 4 5 6 5 2 1 2 3 4 5 5 6 8 9 10 10 10 11 15 19 22 22 20 18 18 18 19 20 21 22 23 24 25 26 26 25 25 25 26 26 27 26 27 27 26 25 25 26 26 26 26 25 24 23 24 24 24 24 24 24 23 23 22 22 22 22 22 21 21 21 21 21 21 21 22 23 24 23
0 2 3 4 3 3 4 4 2 2 1 1 1 3 2 1 1 3 2 3 4 4 4 6 5 2 0 1 3 5 6 6 7 9 9 9 9 10 12 16 19 20 20 20 20 19 20 20 22 23 24 26 27 27 28 28 28 28 28 29 29 29 29 28 27 28 28 29 29 28 28 27 26 25 26 25 25 25 25 25 24 24 23 23 23 23 22 22 22 22 22 22 21 22 23 24 24
1 1 2 3 3 3 3 4 4 2 2 1 4 3 2 1 3 3 2 4 5 3 3 7 6 4 2 1 3 6 7 8 9 9 9 10 10 10 11 12 15 17 19 21 22 21 22 21 22 23 24 26 27 28 29 30 30 30 30 31 31 30 30 29 29 29 30 31 32 31 30 30 28 28 27 27 27 26 26 26 26 25 25 25 25 24 24 24 23 23 23 23 23 22 22 23 24
1 3 3 3 2 2 1 2 4 2 2 3 5 5 2 1 3 1 2 4 3 3 1 7 8 5 2 1 3 5 7 8 9 10 10 10 10 11 11 12 13 15 16 19 21 22 23 24 24 25 25 26 27 28 30 30 31 32 32 33 33 32 31 31 31 31 31 32 33 33 32 32 31 30 29 29 28 28 27 27 26 26 26 26 26 26 25 25 25 25 25 25 25 24 23 24 24
2 3 2 2 1 2 2 2 2 2 1 3 1 2 3 1 4 1 2 2 3 2 1 5 6 4 2 3 4 5 6 7 8 9 10 10 10 11 11 12 12 13 14 15 17 18 20 21 23 24 25 26 27 28 30 31 32 32 33 33 34 34 33 33 33 33 32 33 33 33 33 33 33 32 31 31 30 29 28 28 27 27 27 28 28 27 27 27 27 27 27 27 27 26 26 25 25
2 2 1 2 2 2 1 2 1 2 2 3 1 2 2 2 5 2 4 5 5 2 1 2 2 2 2 3 4 4 5 6 7 8 9 9 10 10 11 11 12 13 14 15 16 17 17 19 19 20 20 21 23 24 27 29 30 32 33 33 34 34 34 35 35 34 34 34 34 34 35 35 35 34 34 33 31 31 30 29 29 28 28 29 29 29 29 29 29 29 29 29 29 29 28 28 27
1 2 3 4 2 2 1 1 0 1 4 2 3 2 1 2 4 5 7 6 5 4 3 1 1 2 2 2 3 4 5 6 7 7 8 9 10 12 12 13 14 15 16 16 17 18 19 19 19 19 18 17 18 19 20 22 24 26 28 30 32 33 33 34 35 35 34 35 35 35 35 36 36 35 35 34 33 32 32 31 30 30 29 29 30 30 31 30 31 31 31 31 31 31 31 31 30
0 1 3 2 1 1 1 1 0 1 3 2 1 1 1 2 2 5 7 7 7 6 4 3 2 1 1 1 3 4 5 6 6 7 9 10 11 13 14 16 17 18 19 19 20 20 20 20 20 20 19 18 18 18 18 18 19 20 21 23 26 27 30 31 32 33 33 33 34 35 36 36 36 36 35 35 34 34 33 32 31 31 30 30 30 31 32 32 32 33 33 33 33 33 33 33 33
1 1 4 2 2 2 1 1 0 2 2 2 1 0 2 2 3 4 9 9 8 5 4 3 1 1 0 1 2 2 3 4 6 7 9 11 13 14 16 19 21 23 23 23 22 22 21 20 19 19 19 18 18 18 18 17 17 17 18 19 20 21 24 26 28 30 30 31 32 33 34 35 35 36 35 35 35 34 34 33 32 32 31 31 31 31 32 33 33 34 35 35 35 35 35 35 35
2 1 4 1 1 2 1 1 2 1 1 2 1 2 3 3 2 5 11 10 8 6 4 3 2 1 0 0 1 1 1 3 5 7 9 12 14 16 19 22 24 25 26 25 24 22 21 20 19 19 18 18 18 17 17 17 16 16 16 17 18 19 20 21 22 24 25 27 28 30 32 33 34 35 35 35 35 35 35 34 33 32 32 31 31 31 32 32 33 35 36 36 36 36 36 37 37
1 1 1 2 2 3 3 0 1 1 0 2 1 2 2 1 1 3 8 7 7 8 7 6 5 3 3 3 3 2 1 2 4 6 9 12 15 17 20 23 24 25 25 24 23 21 20 19 19 18 18 17 17 17 16 16 16 15 16 16 17 17 18 19 19 20 21 21 22 25 27 29 30 31 32 33 34 34 35 34 34 33 32 32 31 31 32 32 33 34 36 36 36 36 37 39 38
2 1 2 2 1 2 2 1 2 1 1 2 1 2 3 1 2 3 5 6 6 8 9 9 7 5 5 4 4 3 3 3 4 6 9 13 16 19 21 23 24 24 23 22 21 20 19 18 18 17 17 17 17 16 16 16 16 15 15 15 16 16 17 17 18 18 19 19 19 19 20 22 23 25 26 28 29 30 31 32 32 32 31 31 31 31 31 32 33 34 35 36 36 36 37 38 38
3 2 3 1 1 0 1 1 0 1 2 3 2 2 2 4 4 5 7 8 8 8 9 10 9 8 6 5 4 5 5 5 6 7 10 13 16 20 22 23 23 22 20 20 19 18 17 17 17 17 17 17 16 16 15 15 15 15 15 16 16 16 16 16 17 17 17 17 17 17 18 19 19 20 21 22 23 24 25 27 27 28 28 28 28 29 29 30 31 33 35 35 35 35 37 38 38
2 3 3 0 1 2 2 1 1 2 1 3 2 2 3 6 6 9 10 10 9 8 7 9 11 9 7 6 6 6 6 7 8 9 11 14 17 20 22 21 20 18 17 17 16 16 16 16 16 16 15 15 14 14 14 14 14 14 14 15 15 15 15 15 15 15 15 16 16 17 18 18 18 18 19 19 20 20 21 22 23 24 25 25 26 27 27 29 31 33 34 34 35 35 37 38 38
1 0 0 1 0 0 1 0 1 2 1 2 1 3 5 5 3 9 11 9 10 11 10 11 11 9 7 6 6 6 6 8 9 10 11 14 17 19 19 18 16 15 14 14 14 14 14 14 14 14 14 13 13 13 13 13 14 14 14 14 14 14 14 14 14 15 15 16 16 17 17 18 19 19 19 20 20 20 20 20 21 22 23 23 24 25 25 27 28 30 32 32 33 34 36 37 38
2 3 3 2 2 3 1 2 1 1 1 2 1 3 7 5 2 3 9 10 13 14 13 13 12 9 8 7 6 5 6 8 9 10 11 13 16 18 17 14 13 13 12 13 12 11 11 11 12 13 13 13 14 14 14 14 14 14 14 15 15 15 15 15 15 16 16 17 17 18 18 18 19 19 20 20 20 20 20 20 20 21 22 22 23 23 23 24 25 27 28 29 30 31 33 34 35
Wind_Direction
84 73 74 75 95 86 65 68 65 54 59 75 70 72 67 62 76 74 69 67 61 50 51 54 45 54 76 90 94 77 57 52 40 57 112 129 114 8 31 50 42 35 38 50 28 360 15 20 23 22 22 13 5 11 12 13 16 17 18 18 18 19 19 19 19 18 17 16 15 12 12 13 13 14 16 17 15 16 17 16 17 17 17 16 15 14 13 13 12 10 8 8 8 8 6 5 4
78 62 58 65 98 91 60 54 79 71 68 75 68 69 78 66 67 66 62 66 67 64 61 58 50 59 88 96 88 76 62 58 64 84 107 118 90 22 41 52 46 22 29 49 18 9 20 18 24 20 20 15 11 15 15 16 17 18 18 18 18 18 18 17 17 16 15 14 13 12 11 13 13 14 17 19 18 18 18 17 17 16 15 15 15 14 14 13 12 11 8 8 9 8 6 4 3
83 87 82 89 81 66 64 53 78 85 73 76 72 68 81 77 72 74 74 75 76 79 75 61 43 51 78 79 70 70 69 62 71 94 104 117 84 28 53 59 45 8 25 42 14 18 23 21 24 22 21 18 17 18 18 19 19 19 18 17 17 16 16 15 15 14 14 13 12 12 12 15 16 15 16 21 20 18 19 18 18 16 14 15 14 12 12 10 10 11 9 9 9 8 6 4 3
90 99 110 104 71 51 63 64 71 83 80 81 80 75 78 85 84 83 81 76 73 72 75 70 45 53 71 66 77 80 80 74 71 97 108 139 140 69 72 68 43 1 24 28 22 23 23 24 24 23 22 20 20 20 21 21 20 19 18 17 16 15 15 14 14 13 12 11 11 13 15 17 19 18 15 19 20 19 20 20 19 17 15 15 12 10 9 8 9 9 9 8 6 8 6 4 2
101 99 101 97 74 51 58 63 67 66 77 85 94 89 86 94 94 91 89 77 70 64 68 84 73 74 67 45 66 84 93 91 79 93 114 153 145 102 80 75 50 11 23 22 27 26 25 26 24 24 22 22 22 21 22 21 20 19 17 17 16 15 13 13 12 11 11 10 12 14 17 18 19 19 17 19 21 22 24 22 21 18 16 15 13 12 10 10 10 9 8 6 4 4 4 3 1
91 93 95 87 73 74 81 72 74 66 73 82 96 94 92 97 101 101 97 88 75 64 67 89 103 92 75 57 73 89 107 112 113 114 125 140 122 102 82 71 41 22 23 26 27 27 28 26 25 25 23 23 22 22 22 21 20 19 18 17 16 15 13 13 11 10 10 10 13 16 17 18 18 20 20 21 22 24 24 23 22 20 19 17 15 13 13 13 13 12 10 7 4 2 1 2 2
89 84 83 81 69 72 77 72 76 71 72 77 94 101 106 108 116 119 111 104 89 76 76 103 119 96 89 100 88 84 109 135 158 142 134 126 116 104 90 71 6 23 27 27 26 29 30 27 26 25 24 24 23 23 22 22 21 19 19 18 17 15 13 12 10 10 10 12 15 17 18 19 20 21 23 24 24 24 23 22 22 22 20 19 18 16 15 13 14 14 12 11 8 3 0 360 0
99 89 79 84 76 65 75 76 74 74 71 70 85 95 108 116 118 116 106 103 104 102 100 118 113 90 92 109 97 91 113 140 160 142 126 119 114 102 102 124 351 26 32 26 27 31 29 28 27 25 25 24 23 23 23 22 22 21 20 19 18 15 14 12 10 10 11 15 17 19 20 21 23 23 24 25 25 25 24 23 22 22 21 20 19 18 16 14 13 13 12 12 10 5 2 0 358
83 88 84 83 86 78 78 77 78 80 79 75 84 88 94 104 103 99 94 94 100 95 90 97 93 98 104 93 105 129 123 134 141 132 124 122 113 99 108 133 115 42 34 28 30 35 33 29 27 27 25 24 24 24 24 24 22 22 20 19 18 16 15 13 12 13 14 17 19 21 23 24 24 25 25 25 25 24 24 23 22 21 21 21 20 18 16 15 13 11 10 10 10 6 4 3 2
78 91 95 78 85 89 79 79 85 80 84 86 88 92 94 97 99 97 96 97 94 91 86 79 88 114 115 102 118 153 168 141 125 120 122 130 117 99 90 96 98 64 39 32 29 35 38 33 29 29 26 24 25 25 25 24 23 22 21 19 18 16 15 14 14 15 17 19 21 22 23 24 24 25 25 25 25 24 23 22 22 20 20 20 19 17 16 15 14 12 10 9 8 6 5 4 4
86 94 97 89 82 84 87 90 92 93 94 93 86 86 92 97 99 98 100 104 102 103 96 76 98 111 109 103 122 171 194 135 116 150 137 131 114 109 105 41 78 68 45 39 34 31 33 35 33 30 28 26 25 26 26 25 23 22 21 20 18 17 16 16 16 17 18 19 20 22 23 24 23 24 25 25 25 24 22 21 20 20 19 18 18 17 15 15 14 12 11 9 8 7 6 3 4
88 81 81 83 81 85 99 101 102 109 106 97 85 77 92 103 102 104 108 112 117 103 55 47 126 119 108 106 130 173 192 128 141 219 175 120 100 118 151 19 56 61 44 38 39 32 25 29 29 25 26 28 27 26 26 25 23 22 21 20 19 18 17 17 17 18 18 19 20 21 23 23 22 23 23 24 24 22 21 19 18 19 18 17 17 16 15 14 14 13 12 11 10 9 7 4 4
91 88 90 86 90 99 100 103 110 108 97 91 89 63 82 96 92 100 111 106 103 94 43 86 131 21 101 116 142 167 184 158 178 219 173 121 122 124 136 137 55 58 49 38 38 36 30 26 23 21 20 22 25 25 25 24 22 22 20 20 20 17 17 17 17 17 17 17 18 21 22 21 22 21 22 22 22 20 18 18 17 17 16 16 16 15 15 15 14 14 12 12 11 10 9 7 7
93 97 105 99 98 105 104 108 113 107 92 97 98 71 73 82 75 77 100 93 74 90 113 122 132 3 111 137 162 169 186 195 193 202 166 146 199 140 118 129 78 54 43 39 34 31 30 28 23 21 20 18 20 22 23 23 21 20 19 20 19 16 17 17 16 16 15 15 17 19 19 20 21 19 20 20 19 17 16 16 15 16 15 16 15 14 15 16 15 15 14 13 12 12 11 11 12
100 100 92 95 100 90 87 99 102 106 107 108 108 94 84 75 61 55 75 87 87 116 121 117 116 49 123 160 162 174 192 210 198 183 163 157 186 154 118 121 85 62 38 33 32 26 21 24 23 20 18 17 17 19 20 21 20 18 18 19 18 16 16 16 15 15 14 14 15 16 16 19 19 18 18 19 17 14 14 15 14 14 14 15 14 13 15 16 16 16 16 15 14 14 13 14 16
96 94 84 78 85 85 88 109 106 103 106 111 119 112 98 71 65 86 82 94 124 125 96 75 95 69 77 118 144 180 199 208 192 176 163 159 169 143 103 81 62 53 37 23 21 25 21 15 16 20 16 14 15 15 17 18 18 19 19 18 16 14 15 15 15 15 13 12 13 13 14 18 18 16 17 17 14 11 13 14 12 13 13 14 13 12 15 16 16 18 18 17 16 15 15 16 17
94 83 80 74 62 69 83 102 106 111 109 124 143 126 108 86 90 109 98 98 121 120 112 136 114 92 119 134 156 188 198 198 189 171 162 157 151 112 13 4 4 2 1 4 8 9 13 11 10 14 13 13 13 11 14 14 16 19 17 15 15 13 13 13 13 14 12 11 11 10 12 16 15 15 16 14 11 11 13 12 11 12 13 14 13 13 15 15 17 19 20 19 17 16 16 16 16
90 71 70 75 52 48 53 72 102 118 122 136 150 126 118 122 125 120 105 102 120 121 125 143 136 137 156 163 175 189 192 191 189 172 163 144 96 358 330 338 343 333 323 332 352 358 356 1 5 6 8 10 7 6 9 10 15 15 11 10 10 10 11 11 12 12 11 10 8 8 10 12 11 12 14 11 10 10 10 10 11 12 13 15 14 14 15 15 16 19 20 19 18 17 17 16 16
68 83 77 64 60 58 68 94 109 115 124 129 119 95 119 132 139 142 138 129 139 139 135 153 162 174 178 180 181 186 190 188 188 175 169 162 56 281 288 303 310 312 303 309 327 349 348 349 358 0 2 2 1 4 5 8 13 10 7 8 7 6 6 7 9 9 9 8 7 6 7 7 7 9 11 10 9 8 7 8 9 11 13 14 15 15 15 15 16 18 19 18 18 18 18 18 18
57 78 86 73 91 70 71 91 104 112 121 124 110 91 112 122 138 163 162 149 173 168 158 179 183 188 189 186 187 186 188 191 191 179 190 214 214 213 214 257 291 308 289 287 309 333 342 340 349 354 356 356 357 360 2 7 9 6 5 6 5 3 2 3 4 5 7 7 5 4 3 4 4 7 8 8 8 6 7 7 8 10 12 14 14 15 16 16 16 17 17 17 17 18 18 19 18
62 67 95 103 103 81 67 80 94 110 117 122 127 118 113 126 149 214 166 155 197 171 159 188 191 194 194 191 193 190 190 195 201 193 201 211 215 210 200 217 233 252 261 278 303 318 334 335 339 347 351 352 354 356 0 4 2 3 4 3 2 359 359 0 359 1 5 3 2 1 0 1 2 4 5 5 5 5 6 6 7 10 11 13 14 14 16 17 17 17 17 16 17 18 19 20 19
74 66 94 98 100 92 80 86 87 102 116 122 129 121 119 143 159 268 247 168 35 137 152 177 187 193 195 198 196 193 194 203 213 206 203 207 215 217 214 233 236 252 269 286 306 312 324 334 334 338 346 349 351 351 354 356 356 360 2 1 357 355 357 356 355 359 1 358 359 1 359 359 359 360 0 2 2 3 5 5 6 9 10 13 13 14 15 16 16 16 17 16 17 18 18 20 19
92 74 85 91 97 93 99 102 82 88 110 100 96 110 126 152 167 203 262 308 89 129 153 151 159 185 194 198 198 199 201 209 220 220 223 220 223 230 230 245 258 275 283 290 303 307 315 329 330 332 339 343 346 346 345 347 352 356 357 356 354 355 355 351 353 356 354 354 357 358 358 358 357 357 357 358 359 1 4 3 5 7 9 11 12 14 15 16 15 15 17 16 17 17 19 21 19
98 91 83 89 92 89 104 106 72 67 81 77 92 117 136 164 169 190 234 221 181 169 170 163 162 175 188 196 203 206 207 214 225 231 241 243 248 252 245 241 242 253 266 281 297 300 306 319 325 327 330 335 339 339 340 342 347 351 351 352 352 353 351 349 352 350 348 351 354 355 357 357 356 355 355 356 357 359 1 2 4 5 7 10 11 12 13 15 15 15 16 16 15 16 19 21 19
74 101 100 96 92 91 100 94 74 68 70 83 96 99 110 114 296 255 225 201 209 205 189 190 180 178 185 196 211 214 212 220 226 232 240 244 251 255 256 257 253 255 265 280 292 296 302 312 320 322 323 329 333 334 336 337 340 344 346 349 349 349 348 349 349 345 346 348 350 353 355 356 355 355 354 354 355 356 359 0 2 3 5 7 9 11 12 13 13 15 17 15 14 15 17 20 20
84 108 108 102 98 101 99 88 83 72 67 77 28 79 131 260 293 254 215 198 214 214 202 209 196 193 193 196 213 220 220 225 230 233 239 246 250 252 256 264 268 271 277 285 291 296 300 308 317 318 318 324 327 328 331 332 334 338 341 345 346 345 345 346 345 344 345 345 347 351 352 353 354 355 354 353 353 355 357 358 359 360 2 4 6 9 9 10 11 13 16 15 14 14 14 16 17
113 108 105 104 103 103 98 96 91 75 80 56 345 332 148 234 291 234 195 196 216 215 211 219 209 209 208 207 213 222 227 230 237 239 240 247 255 262 266 269 276 283 284 286 292 293 297 307 316 315 314 318 320 321 325 326 328 332 334 339 342 341 342 342 341 341 343 344 346 348 349 351 353 354 353 352 352 352 353 355 357 357 359 1 3 5 5 8 9 11 13 13 13 13 13 13 13
119 110 103 105 111 110 105 110 110 93 99 60 333 313 230 176 272 228 187 197 218 214 212 224 226 221 220 229 223 226 233 232 239 244 244 246 254 264 273 279 285 290 290 292 295 291 296 307 312 312 311 313 314 314 317 319 320 325 328 331 337 337 338 339 338 339 341 344 346 345 346 348 350 352 352 352 351 350 350 352 354 355 357 358 0 1 2 4 6 9 11 11 11 11 12 12 9
125 116 106 122 132 119 115 125 126 210 82 27 322 310 245 197 230 213 189 198 205 202 210 220 233 231 226 239 237 235 239 236 236 241 245 247 251 258 265 277 282 282 284 288 291 293 299 305 308 309 309 310 310 308 310 313 314 319 322 326 332 332 333 335 336 338 338 341 344 344 345 346 348 349 350 351 350 349 348 349 350 352 354 355 357 358 359 1 2 6 9 8 9 9 11 10 8
140 130 123 145 147 118 126 135 153 203 199 335 5 345 229 204 210 197 191 198 194 197 211 220 234 235 231 236 239 242 243 244 245 247 251 254 255 255 254 257 260 264 270 274 281 292 298 301 305 306 307 308 307 304 306 308 311 315 318 322 327 327 327 331 334 336 337 338 341 343 343 344 346 347 348 349 349 349 347 347 349 349 351 353 354 354 356 357 358 2 4 5 7 7 8 7 7
149 121 143 182 143 117 151 138 208 209 166 130 101 10 170 175 185 189 196 200 197 202 210 223 232 233 236 235 236 243 245 249 257 258 259 263 265 262 257 256 257 261 266 272 281 291 295 297 300 302 303 304 303 303 303 306 309 311 314 316 320 322 323 327 332 334 336 337 339 342 343 343 344 345 346 347 348 348 348 347 347 347 349 350 350 351 352 353 355 357 359 1 3 5 6 5 6
120 92 150 212 129 130 169 115 54 43 126 168 148 309 316 136 165 186 196 197 200 207 216 226 229 232 236 238 241 245 249 253 258 261 261 263 266 266 265 265 267 268 270 277 285 290 292 294 297 298 300 301 301 301 301 303 305 306 309 311 314 318 319 324 329 331 333 335 337 340 340 342 343 343 345 346 347 347 347 347 346 346 346 347 347 347 349 350 352 353 354 357 359 0 1 3 4
179 171 102 71 99 150 185 83 82 35 42 188 190 284 319 130 164 186 195 197 201 205 218 229 231 235 234 237 244 248 253 253 252 257 260 260 262 265 269 271 271 273 275 280 285 289 291 293 295 298 299 299 299 300 300 301 302 303 305 307 310 314 317 321 324 327 329 331 335 337 338 341 341 342 344 345 346 347 347 347 346 346 344 344 345 344 346 347 348 350 352 353 353 355 356 358 359
230 212 112 47 59 145 184 87 179 249 270 209 183 222 288 216 175 192 200 199 203 207 219 230 233 237 237 239 244 247 251 253 253 257 259 263 266 266 269 274 275 275 278 282 284 287 292 292 295 299 299 299 299 299 300 300 301 302 303 305 307 311 314 317 320 323 326 328 331 335 337 339 341 341 342 343 345 346 347 347 346 345 344 343 343 343 343 344 346 347 348 349 349 350 351 352 353
354 11 50 34 50 92 109 122 205 261 221 220 199 216 271 255 179 192 206 200 204 213 219 226 234 239 242 243 245 249 250 254 260 262 262 262 262 264 270 278 280 277 278 282 284 286 290 293 296 300 299 299 299 298 300 301 301 301 302 303 305 309 312 314 317 319 321 324 327 332 334 336 340 341 341 341 342 343 345 346 347 346 345 344 343 342 341 341 343 343 343 345 345 346 346 346 349
330 330 338 18 56 58 76 113 89 343 230 238 236 227 269 278 194 195 204 202 205 216 223 227 235 239 242 245 248 251 253 260 267 266 263 260 259 265 274 281 281 277 276 280 282 285 289 292 295 299 300 299 298 298 300 301 300 300 301 302 305 307 309 310 313 314 316 319 322 327 331 333 336 339 340 341 340 341 342 343 345 346 344 344 343 341 340 339 339 339 339 340 341 342 343 345 346
294 299 297 42 61 76 90 91 125 48 331 242 232 261 273 278 266 200 193 195 203 213 221 227 233 237 240 242 245 250 257 269 275 267 263 264 268 274 278 281 282 280 279 280 283 286 289 291 294 298 300 298 297 298 299 298 298 300 300 301 303 304 306 308 310 311 313 316 319 322 326 329 331 335 338 339 340 340 341 341 342 344 343 343 342 341 340 338 336 336 336 335 336 338 340 342 343
293 310 305 55 61 57 58 51 136 114 17 216 298 314 274 248 15 148 168 181 202 212 221 228 235 238 243 247 250 256 263 271 273 270 273 276 278 280 279 281 285 285 284 284 285 287 288 289 292 297 299 297 298 297 296 297 297 298 298 299 301 303 305 308 311 313 314 316 317 319 323 325 327 330 332 336 338 339 339 340 340 342 342 341 341 340 339 337 335 333 332 333 333 334 335 337 339
320 321 329 20 58 34 40 48 255 197 240 336 21 343 277 153 90 131 165 189 210 218 225 229 235 237 241 248 254 261 267 269 270 273 281 288 289 288 286 286 286 286 286 285 286 286 286 288 292 295 296 295 296 295 295 297 297 297 297 298 300 302 305 308 311 314 316 318 317 317 319 321 322 324 327 329 333 336 337 339 339 340 341 340 339 339 338 337 336 333 331 331 331 331 331 332 335
9 10 18 11 21 29 51 73 254 220 206 301 346 327 275 117 94 172 195 211 218 221 224 224 230 236 239 243 249 258 265 269 272 275 279 285 287 289 292 293 289 286 284 285 287 287 287 289 291 291 292 293 294 295 296 296 296 295 295 297 298 300 302 305 307 311 314 315 315 315 316 316 318 319 321 324 327 330 333 335 337 338 339 340 339 338 337 337 336 334 332 331 330 330 330 330 331
38 26 51 20 355 8 277 301 291 235 201 256 309 326 278 145 110 226 212 209 224 227 228 233 239 246 252 257 265 269 274 278 278 278 277 273 273 279 288 294 295 291 289 291 292 292 290 289 289 289 289 292 294 296 296 294 293 293 294 296 297 298 299 300 304 309 311 310 310 311 311 311 313 315 316 318 320 323 326 329 332 334 336 337 338 338 337 336 335 335 333 331 330 328 327 327 327
38 11 26 354 329 329 301 310 328 3 323 250 171 46 283 219 100 143 190 176 205 219 225 244 257 266 275 287 302 302 296 296 296 294 289 278 269 269 278 287 294 297 298 299 297 294 292 290 289 288 288 290 294 296 296 294 292 292 293 295 298 298 299 301 305 308 307 307 308 309 309 309 310 312 313 313 315 317 319 323 325 328 330 332 334 336 337 336 334 334 334 332 330 327 326 326 326
353 300 324 313 306 320 312 319 340 102 242 248 144 118 232 305 66 129 189 146 161 186 193 195 264 261 278 302 315 315 310 308 311 317 317 307 287 272 272 279 288 295 299 299 297 296 295 294 292 290 289 290 292 294 295 295 294 293 294 296 298 298 300 305 308 308 307 307 309 310 311 312 310 311 312 311 312 313 314 317 319 321 323 325 327 330 332 332 332 333 332 332 330 328 325 325 326
182 256 294 310 315 321 333 339 293 240 242 263 51 112 169 283 233 198 201 136 133 142 145 126 116 128 114 332 301 309 325 329 330 332 333 332 323 305 289 284 286 290 294 295 296 298 298 297 295 292 290 289 290 292 293 294 295 295 295 295 296 297 300 305 307 306 306 306 308 311 312 312 312 312 311 311 310 310 311 313 314 315 317 318 320 323 326 327 327 328 328 329 329 327 325 324 324
123 308 300 312 337 329 337 333 279 279 57 290 319 23 121 233 257 209 157 92 70 41 115 128 114 99 83 26 309 318 332 336 335 334 331 329 327 321 312 301 294 291 292 293 294 297 297 297 296 293 292 291 290 290 290 292 293 294 294 294 295 297 299 302 303 302 302 303 304 308 310 311 312 311 310 310 310 309 310 311 311 312 312 313 314 317 319 320 321 322 323 324 325 325 324 322 322
320 326 299 272 307 295 273 290 287 339 73 262 317 10 93 228 281 240 84 74 65 333 47 107 96 84 71 348 315 324 335 336 334 332 331 329 326 323 317 311 306 300 296 295 295 296 296 296 295 293 292 291 290 288 288 289 290 291 291 292 294 296 297 299 299 299 299 300 301 303 307 308 309 310 310 310 310 310 310 310 310 310 310 309 311 313 314 314 315 316 317 318 319 321 320 319 319
324 318 296 263 278 277 224 233 282 19 341 252 291 12 93 145 279 263 111 142 165 251 286 87 76 57 12 332 333 341 344 342 340 339 339 339 337 335 331 326 322 317 312 309 306 304 302 301 299 297 296 293 290 288 287 288 288 288 289 290 292 293 295 295 294 295 297 297 298 301 303 304 306 307 308 309 310 311 310 309 308 307 308 308 309 311 311 311 311 311 313 313 314 315 315 315 315
357 322 342 19 4 342 3 317 358 67 267 236 126 16 79 151 262 228 144 158 155 183 235 65 39 9 339 333 350 356 354 352 351 352 352 355 357 356 355 352 348 343 337 333 329 325 321 317 313 310 308 303 298 293 290 289 288 288 288 288 289 290 291 291 291 292 293 294 295 297 298 300 302 303 305 307 309 310 309 308 306 305 306 306 307 308 309 310 309 309 310 310 311 312 312 311 311
11 353 32 50 37 4 17 300 3 150 248 230 93 27 306 217 229 167 152 158 152 170 194 204 260 278 309 333 2 360 4 9 8 11 11 13 13 10 8 3 357 352 346 340 336 332 328 324 322 322 323 319 313 309 304 300 297 295 292 290 288 288 287 286 287 289 290 291 292 293 294 296 297 299 301 303 305 306 305 305 305 304 304 304 304 305 306 307 307 308 308 309 309 310 310 309 309
199 29 61 80 108 25 293 268 342 241 266 288 61 32 274 276 251 162 154 159 161 175 194 211 233 241 296 337 21 12 14 19 17 19 19 16 12 7 2 357 352 348 345 341 337 333 328 324 322 322 325 325 323 323 322 320 318 314 308 302 298 293 290 288 287 287 287 288 288 289 291 292 293 295 296 298 300 300 300 301 302 302 302 303 302 302 302 303 303 304 305 306 307 308 308 307 308
236 144 103 118 149 154 223 254 236 242 278 314 345 36 173 206 245 171 145 151 166 177 192 197 208 198 9 19 29 11 7 20 20 19 15 8 3 358 353 350 347 346 345 343 340 337 333 329 326 324 324 326 326 328 329 329 330 329 326 322 317 311 305 300 296 293 291 289 288 288 288 289 290 292 293 295 296 296 296 297 297 298 299 300 300 300 300 300 301 301 301 302 303 304 305 304 306
280 80 93 118 188 150 160 189 206 205 325 311 276 242 199 168 192 149 139 152 171 175 188 184 187 235 159 75 271 295 348 15 13 8 5 360 354 351 348 346 344 343 342 342 341 340 338 334 331 328 327 328 329 329 331 332 333 334 335 335 334 331 326 321 316 310 304 298 294 291 290 290 290 291 293 293 294 294 294 294 294 295 296 297 298 299 299 299 299 299 299 299 300 301 301 301 302
340 52 122 241 188 119 113 8 327 79 318 275 236 262 264 54 333 165 148 167 183 184 199 195 190 207 206 223 253 262 294 344 351 353 352 349 347 347 346 344 341 339 338 341 342 343 342 338 335 332 331 331 332 332 333 334 335 336 337 339 340 339 338 336 334 331 326 319 312 305 301 298 296 295 294 293 292 292 292 293 294 295 296 296 297 297 298 299 299 298 299 299 299 299 299 299 299
111 125 259 270 101 101 109 46 341 10 249 265 214 242 245 193 279 214 177 199 204 191 192 191 192 199 207 230 256 264 276 300 316 333 340 341 343 343 342 342 339 338 339 342 345 344 344 342 339 338 337 337 338 337 336 336 336 337 337 338 339 340 340 340 340 341 341 339 334 327 319 313 307 303 300 297 295 294 294 295 296 297 298 299 299 299 298 298 298 298 299 299 299 299 298 297 298
187 243 295 325 119 154 117 109 286 260 259 271 292 299 240 204 204 196 197 209 204 186 181 187 194 196 203 220 240 263 276 282 292 315 331 336 339 339 340 340 337 338 341 343 344 344 344 345 346 347 347 346 345 343 342 341 340 341 341 341 341 342 342 342 343 344 344 344 343 340 336 332 327 321 316 311 306 303 302 301 302 302 303 303 302 301 299 299 298 298 298 299 300 300 298 298 298
258 296 321 338 149 185 187 164 172 172 223 270 311 350 266 234 205 183 192 201 189 177 181 192 195 197 206 218 235 261 275 282 292 308 321 329 336 338 339 338 337 339 342 343 345 346 349 351 353 355 355 355 354 352 352 352 351 351 351 351 351 351 351 351 351 350 350 350 350 350 350 349 346 342 338 332 326 321 317 313 311 310 309 308 306 305 304 303 301 300 300 301 302 302 300 300 300
148 119 165 206 50 88 196 204 134 154 192 262 298 299 265 259 206 174 182 188 178 174 180 189 192 198 212 226 243 266 282 290 295 302 315 327 335 337 337 337 339 344 347 348 351 355 358 360 2 4 5 6 7 6 5 4 4 4 4 4 4 4 4 3 2 1 0 0 1 1 1 360 359 356 354 351 347 343 338 332 328 324 322 320 318 316 314 311 308 307 306 306 306 305 303 303 303
156 162 176 183 144 119 129 297 281 140 156 199 184 274 265 270 307 168 164 161 167 172 176 183 191 199 209 227 246 266 284 293 297 302 315 330 336 337 338 341 347 353 356 358 3 11 16 18 21 22 22 23 23 21 20 19 18 17 17 18 18 18 17 16 15 14 13 12 11 10 10 8 6 4 2 0 358 356 353 349 345 341 337 335 332 329 326 321 318 315 313 311 310 308 306 306 305